Overview Statistics Trail Chart Weather Telemetry Raw packets
 

This is the latest recevied weather packets stored in our database for station/object N5CSU. If no packets are shown the sender has not sent any weather packets the latest 10 day(s).

<< 33 34 35 36 37 38 39 >>
Time Temp. Humidity Pressure Rain* Wind** Luminosity Snow
1788392101 26.67° C 97% 1011.9 hPa 0 mm - 6 W/m² -
1788391796 26.67° C 97% 1011.8 hPa 0 mm - 8 W/m² -
1788391490 26.11° C 96% 1011.7 hPa 0 mm - 8 W/m² -
1788391184 25.56° C 95% 1011.8 hPa 1.27 mm - 10 W/m² -
1788390880 25.56° C 95% 1011.9 hPa 1.27 mm - 13 W/m² -
1788390579 25.56° C 94% 1011.8 hPa 3.05 mm - 15 W/m² -
1788390274 26.11° C 92% 1012 hPa 15.49 mm - 15 W/m² -
1788389968 27.22° C 88% 1012.2 hPa 11.94 mm - 12 W/m² -
1788389663 30° C 79% 1012.4 hPa 3.05 mm - 11 W/m² -
1788389361 33.89° C 62% 1012.1 hPa 0 mm - 11 W/m² -
1788389056 35.56° C 50% 1011.7 hPa 0 mm - 18 W/m² -
1788388752 36.67° C 44% 1011.2 hPa 0 mm - 19 W/m² -
1788388447 37.22° C 43% 1011.3 hPa 0 mm - 14 W/m² -
1788388142 37.22° C 42% 1011.1 hPa 0 mm - 19 W/m² -
1788387840 37.22° C 42% 1011.2 hPa 0 mm - 147 W/m² -
1788387540 36.67° C 43% 1011.1 hPa 0 mm - 24 W/m² -
1788387239 36.67° C 43% 1011.5 hPa 0 mm - 16 W/m² -
1788386935 37.22° C 43% 1011.6 hPa 0 mm - 17 W/m² -
1788386634 37.22° C 43% 1011.4 hPa 0 mm - 56 W/m² -
1788386330 37.22° C 43% 1011.3 hPa 0 mm - 21 W/m² -
1788386030 37.22° C 43% 1011.4 hPa 0 mm - 13 W/m² -
1788385726 36.67° C 44% 1011.7 hPa 0 mm - 15 W/m² -
1788385424 37.22° C 43% 1011.7 hPa 0 mm - 10 W/m² -
1788385120 37.22° C 42% 1011.7 hPa 0 mm - 17 W/m² -
1788384816 37.22° C 42% 1011.7 hPa 0 mm - 15 W/m² -

* Rain latest hour (hover to see other rain measurements)
** Current wind speed in m/s (hover to see current wind gust speed)